Burnsville, North Carolina, United States (28714)
Lat: 35.92N, Lon: 82.3W
Wx Zone: NCZ049
Local Info
Past Weather Observations for Today

NOTE: This archive is for the closest National Weather Service station to Burnsville. Information may differ from the station used for current weather conditions.

Time Weather Temperature Dewpoint Humidity Pressure Winds Precip Visibility
20:54
Overcast
Light Rain
46°F / 8°C 45°F / 7°C 93% 30.24 in
(1024 mb)
N 3.5 mph
(N 6 kph)
0.03 in
(0.76 mm)
10SM
19:54
Overcast
Light Rain
46°F / 8°C 45°F / 7°C 93% 30.24 in
(1024 mb)
Calm 0.03 in
(0.76 mm)
7SM
18:54
Overcast
Light Rain
46°F / 8°C 45°F / 7°C 93% 30.24 in
(1024 mb)
NNW 4.6 mph
(NNW 7 kph)
0.04 in
(1.02 mm)
5SM
17:54
Overcast
Light Rain
48°F / 9°C 46°F / 8°C 94% 30.27 in
(1025 mb)
Calm 0.04 in
(1.02 mm)
8SM
16:54
Overcast
Light Rain
50°F / 10°C 43°F / 6°C 76% 30.27 in
(1025 mb)
NNW 4.6 mph
(NNW 7 kph)
0.00 in
(0.00 mm)
10SM
15:54
Overcast
54°F / 12°C 36°F / 2°C 51% 30.24 in
(1024 mb)
N 6.9 mph
(N 11 kph)
- 10SM
14:54
Overcast
54°F / 12°C 36°F / 2°C 51% 30.27 in
(1025 mb)
WNW 3.5 mph
(WNW 6 kph)
- 10SM
13:54
Mostly Cloudy
54°F / 12°C 37°F / 3°C 54% 30.3 in
(1026 mb)
NW 5.8 mph
(NW 9 kph)
- 10SM
12:54
Partly Cloudy
52°F / 11°C 36°F / 2°C 54% 30.33 in
(1027 mb)
S 5.8 mph
(S 9 kph)
- 10SM
11:54
Partly Cloudy
50°F / 10°C 34°F / 1°C 54% 30.36 in
(1028 mb)
Variable 4.6 mph
(Variable 7 kph)
- 10SM
10:54
Clear
48°F / 9°C 36°F / 2°C 62% 30.39 in
(1029 mb)
SSE 3.5 mph
(SSE 6 kph)
- 10SM
09:54
Mostly Cloudy
46°F / 8°C 34°F / 1°C 62% 30.39 in
(1029 mb)
Calm - 10SM
08:54
Partly Cloudy
45°F / 7°C 34°F / 1°C 66% 30.39 in
(1029 mb)
Calm - 10SM
07:54
Clear
43°F / 6°C 36°F / 2°C 76% 30.39 in
(1029 mb)
Calm - 10SM
06:54
Clear
39°F / 4°C 34°F / 1°C 81% 30.36 in
(1028 mb)
Calm - 10SM
05:54
Clear
39°F / 4°C 34°F / 1°C 81% 30.36 in
(1028 mb)
Calm - 10SM
04:54
Clear
39°F / 4°C 34°F / 1°C 81% 30.39 in
(1029 mb)
Calm - 10SM
03:54
Clear
37°F / 3°C 34°F / 1°C 87% 30.39 in
(1029 mb)
Calm - 10SM
02:54
Clear
39°F / 4°C 32°F / 0°C 75% 30.39 in
(1029 mb)
Calm - 10SM
01:54
Clear
39°F / 4°C 34°F / 1°C 81% 30.39 in
(1029 mb)
Calm - 10SM
00:54
Clear
39°F / 4°C 34°F / 1°C 81% 30.39 in
(1029 mb)
Calm - 10SM
Time Weather Temperature Dewpoint Humidity Pressure Winds Precip Visibility


Weather for websites

WeatherForYou.com, LLC is not responsible for any damages or problems caused by this service. Current weather conditions are obtained from the closest station including government and personal stations which may have varying degrees of accuracy. Weather forecasts are derived from the NOAA NDFD. Like all things, this site belongs to Jesus Christ... He just trusts me to maintain it. If you have any questions or comments email webmaster@weatherforyou.com

Copyright © 2014, WeatherForYou.com LLC. All rights reserved.